Location: Elmsmere
(40.9284°N, 73.8207°W)
Time: 13:40:24
(UTC+00:00)

N. Korean satellite - Visible Passes

Search period start: 30 November 2022 00:00
Search period end: 10 December 2022 00:00
Orbit: 421 x 454 km, 97.3° (Epoch: 29 November)

Date Brightness Start Highest point End Pass type
(mag) Time Alt. Az. Time Alt. Az. Time Alt. Az.
30 Nov 9.8 09:15:56 10° ENE 09:17:34 13° E 09:19:12 10° ESE visible
30 Nov 7.1 10:47:06 10° N 10:50:12 32° WNW 10:53:15 10° SW visible
01 Dec 6.7 10:08:08 10° NNE 10:11:33 69° E 10:14:54 10° S visible
01 Dec 9.4 22:10:14 10° SSW 22:12:52 21° W 22:15:31 10° NW visible
02 Dec 9.1 09:30:05 10° NE 09:32:38 20° E 09:35:10 10° SE visible
02 Dec 7.7 11:02:25 10° NNW 11:05:04 21° WNW 11:07:40 10° WSW visible
03 Dec 6.2 10:23:01 10° N 10:26:25 71° WNW 10:29:46 10° SSW visible
03 Dec 9.7 22:25:58 10° SW 22:27:49 14° W 22:29:40 10° WNW visible
04 Dec 8.3 09:44:29 10° NNE 09:47:32 30° E 09:50:32 10° SSE visible
04 Dec 8.1 11:17:52 10° NNW 11:19:45 14° WNW 11:21:36 10° W visible
05 Dec 6.7 10:37:52 10° N 10:41:07 43° WNW 10:44:19 10° SW visible
06 Dec 7.3 09:58:56 10° NNE 10:02:14 48° E 10:05:29 10° S visible
06 Dec 8.8 22:00:28 10° SSW 22:03:26 28° W 22:06:25 10° NW visible
07 Dec 9.5 09:21:07 10° ENE 09:23:05 15° E 09:25:03 10° SE visible
07 Dec 7.3 10:52:42 10° NNW 10:55:38 27° WNW 10:58:31 10° SW visible
08 Dec 6.4 10:13:22 10° NNE 10:16:46 81° ESE 10:20:05 10° S visible
08 Dec 9.5 22:15:32 10° SW 22:17:59 19° W 22:20:28 10° NW visible
09 Dec 8.9 09:34:56 10° NE 09:37:37 22° E 09:40:18 10° SSE visible
09 Dec 7.8 11:07:35 10° NNW 11:09:58 18° WNW 11:12:21 10° WSW visible
